GW0378 Weather Reports


Display with metric or nautical units.
time (UTC)temp
F
wind
direction
speed
MPH
gust
MPH
rain 1hr
in
rain 24hr
in
rain mn
in
humidity
%
barometer
mb
20260510095038 45 103 3.0 5.0 0.00 0.00 0.00 73 1020.9
20260510094533 45 109 1.0 2.0 0.00 0.00 0.00 73 1020.8
20260510094028 45 119 2.0 3.0 0.00 0.00 0.00 71 1020.7
20260510093524 45 114 0.0 4.0 0.00 0.00 0.00 71 1020.8
20260510093021 45 115 3.0 4.0 0.00 0.00 0.00 71 1020.6
20260510092519 45 105 4.0 4.0 0.00 0.00 0.00 73 1020.7
20260510092018 44 135 2.0 2.0 0.00 0.00 0.00 74 1020.5
20260510091515 44 127 2.0 2.0 0.00 0.00 0.00 73 1020.8
20260510091011 45 96 2.0 2.0 0.00 0.00 0.00 71 1020.3
20260510090509 45 105 2.0 3.0 0.00 0.00 0.00 71 1020.6
20260510090004 45 77 2.0 3.0 0.00 0.00 0.00 71 1020.5
20260510085459 45 123 1.0 2.0 0.00 0.00 0.00 70 1020.5
20260510084955 46 144 0.0 2.0 0.00 0.00 0.00 69 1020.6
20260510084452 46 99 3.0 4.0 0.00 0.00 0.00 69 1020.3
20260510083949 46 83 3.0 3.0 0.00 0.00 0.00 70 1020.3
20260510083445 46 109 2.0 3.0 0.00 0.00 0.00 70 1020.2
20260510082940 48 157 0.0 3.0 0.00 0.00 0.00 67 1020.6
20260510082439 47 250 3.0 4.0 0.00 0.00 0.00 68 1020.8
20260510081938 47 199 3.0 5.0 0.00 0.00 0.00 67 1020.6
20260510081434 48 110 4.0 6.0 0.00 0.00 0.00 65 1020.2
20260510080930 48 114 3.0 9.0 0.00 0.00 0.00 64 1020.6
20260510080429 48 117 4.0 8.0 0.00 0.00 0.00 65 1020.6
20260510075926 47 126 4.0 6.0 0.00 0.00 0.00 66 1020.6
20260510075424 48 109 6.0 7.0 0.00 0.00 0.00 65 1020.6
20260510074920 47 118 7.0 7.0 0.00 0.00 0.00 66 1020.7
20260510074418 48 95 3.0 4.0 0.00 0.00 0.00 66 1020.6
20260510073914 48 107 3.0 4.0 0.00 0.00 0.00 66 1020.7
20260510073409 48 99 3.0 5.0 0.00 0.00 0.00 65 1020.5
20260510072906 49 97 3.0 3.0 0.00 0.00 0.00 64 1020.6
20260510072403 47 147 2.0 3.0 0.00 0.00 0.00 66 1020.8
20260510071858 48 110 2.0 3.0 0.00 0.00 0.00 65 1020.6
20260510071355 48 126 0.0 1.0 0.00 0.00 0.00 65 1020.6
20260510070854 49 114 1.0 3.0 0.00 0.00 0.00 64 1020.5
20260510070350 48 157 0.0 1.0 0.00 0.00 0.00 64 1020.5
20260510065850 48 144 2.0 3.0 0.00 0.00 0.00 64 1020.2
20260510065347 48 105 3.0 4.0 0.00 0.00 0.00 64 1020.2
20260510064844 49 112 2.0 3.0 0.00 0.00 0.00 64 1020.3
20260510064342 48 102 3.0 4.0 0.00 0.00 0.00 65 1020.2
20260510063838 49 121 3.0 3.0 0.00 0.00 0.00 62 1020.3
20260510063334 51 117 5.0 5.0 0.00 0.00 0.00 59 1020.6
20260510062831 50 101 3.0 4.0 0.00 0.00 0.00 61 1020.5
20260510062327 50 103 3.0 4.0 0.00 0.00 0.00 60 1020.3
20260510061822 49 101 2.0 4.0 0.00 0.00 0.00 62 1020.5
20260510061319 49 116 4.0 5.0 0.00 0.00 0.00 63 1020.2
20260510060815 50 113 2.0 5.0 0.00 0.00 0.00 62 1020.3
20260510060313 51 114 4.0 8.0 0.00 0.00 0.00 60 1020.2
20260510055809 51 108 6.0 6.0 0.00 0.00 0.00 59 1020.5
20260510055308 51 107 3.0 9.0 0.00 0.00 0.00 58 1020.3
20260510054807 52 93 3.0 6.0 0.00 0.00 0.00 58 1020.5
20260510054303 51 106 4.0 5.0 0.00 0.00 0.00 59 1020.1
20260510053758 51 108 3.0 4.0 0.00 0.00 0.00 60 1020.2
20260510053254 50 95 3.0 4.0 0.00 0.00 0.00 60 1020.3
20260510052750 50 112 3.0 3.0 0.00 0.00 0.00 61 1020.2
20260510052246 51 101 3.0 5.0 0.00 0.00 0.00 59 1020.0
20260510051742 51 101 2.0 4.0 0.00 0.00 0.00 60 1019.9
20260510051239 51 121 2.0 3.0 0.00 0.00 0.00 59 1020.0
20260510050736 52 101 5.0 5.0 0.00 0.00 0.00 58 1020.0
20260510050233 52 114 4.0 7.0 0.00 0.00 0.00 56 1020.0
20260510045730 52 83 4.0 5.0 0.00 0.00 0.00 56 1020.0
20260510045226 53 104 3.0 5.0 0.00 0.00 0.00 54 1019.8
20260510044723 54 99 3.0 5.0 0.00 0.00 0.00 51 1019.9
20260510044221 54 85 4.0 7.0 0.00 0.00 0.00 51 1019.9
20260510043715 54 107 4.0 5.0 0.00 0.00 0.00 53 1019.7
20260510043213 55 119 4.0 7.0 0.00 0.00 0.00 50 1019.7
20260510042710 55 103 5.0 10.0 0.00 0.00 0.00 50 1019.9
20260510042206 55 104 5.0 8.0 0.00 0.00 0.00 52 1019.8
20260510041703 55 95 6.0 7.0 0.00 0.00 0.00 52 1019.8
20260510041201 55 120 4.0 7.0 0.00 0.00 0.00 52 1019.6
20260510040657 55 119 5.0 7.0 0.00 0.00 0.00 52 1019.6
20260510040154 55 114 6.0 9.0 0.00 0.00 0.00 51 1019.5
20260510035649 55 118 10.0 10.0 0.00 0.00 0.00 51 1019.1
20260510035145 56 109 5.0 7.0 0.00 0.00 0.00 49 1019.3
20260510034642 57 90 5.0 7.0 0.00 0.00 0.00 49 1019.3
20260510034139 57 100 3.0 7.0 0.00 0.00 0.00 48 1019.2
20260510033635 57 95 3.0 9.0 0.00 0.00 0.00 48 1019.0
20260510033133 57 110 4.0 8.0 0.00 0.00 0.00 49 1018.9
20260510032629 57 105 6.0 10.0 0.00 0.00 0.00 48 1018.9
20260510032125 58 112 4.0 11.0 0.00 0.00 0.00 47 1019.2
20260510031620 58 80 3.0 9.0 0.00 0.00 0.00 47 1018.9
20260510031117 59 99 5.0 9.0 0.00 0.00 0.00 47 1018.9
20260510030611 60 112 4.0 8.0 0.00 0.00 0.00 45 1019.0
20260510030109 60 121 3.0 6.0 0.00 0.00 0.00 46 1018.8
20260510025606 60 110 5.0 8.0 0.00 0.00 0.00 46 1018.9
20260510025104 60 109 2.0 5.0 0.00 0.00 0.00 45 1018.8
20260510024600 61 99 3.0 6.0 0.00 0.00 0.00 44 1018.8
20260510024056 62 121 3.0 5.0 0.00 0.00 0.00 43 1018.7
20260510023553 62 144 2.0 5.0 0.00 0.00 0.00 42 1018.8
20260510023050 63 106 2.0 3.0 0.00 0.00 0.00 42 1018.5
20260510022549 63 106 3.0 3.0 0.00 0.00 0.00 41 1018.6
20260510022044 64 114 1.0 1.0 0.00 0.00 0.00 40 1018.6
20260510021541 66 198 0.0 0.0 0.00 0.00 0.00 40 1018.3
20260510021038 67 195 0.0 3.0 0.00 0.00 0.00 36 1018.7
20260510020532 68 251 0.0 3.0 0.00 0.00 0.00 33 1018.3
20260510020028 69 270 1.0 3.0 0.00 0.00 0.00 32 1018.7
20260510015524 68 290 2.0 3.0 0.00 0.00 0.00 31 1018.5
20260510015020 69 278 3.0 3.0 0.00 0.00 0.00 31 1018.3
20260510014517 69 278 0.0 3.0 0.00 0.00 0.00 31 1018.3
20260510014014 69 270 2.0 4.0 0.00 0.00 0.00 31 1018.5
20260510013508 71 247 2.0 3.0 0.00 0.00 0.00 30 1018.5
20260510013005 70 279 0.0 2.0 0.00 0.00 0.00 29 1018.1
20260510012459 70 252 2.0 4.0 0.00 0.00 0.00 30 1018.2
20260510011954 71 8 0.0 1.0 0.00 0.00 0.00 28 1018.2
20260510011449 72 315 2.0 2.0 0.00 0.00 0.00 28 1018.5
20260510010946 71 123 2.0 4.0 0.00 0.00 0.00 28 1018.2
20260510010443 72 7 1.0 3.0 0.00 0.00 0.00 30 1018.5
20260510005940 71 315 3.0 3.0 0.00 0.00 0.00 29 1018.0
20260510005436 70 245 6.0 6.0 0.00 0.00 0.00 30 1018.5
20260510004933 71 246 3.0 3.0 0.00 0.00 0.00 29 1018.1
20260510004430 71 274 3.0 5.0 0.00 0.00 0.00 29 1018.3
20260510003929 71 254 3.0 5.0 0.00 0.00 0.00 29 1018.3
20260510003425 72 258 2.0 5.0 0.00 0.00 0.00 29 1018.1
20260510002924 72 236 3.0 4.0 0.00 0.00 0.00 29 1018.2
20260510002422 71 307 3.0 8.0 0.00 0.00 0.00 31 1018.2
20260510001918 71 323 2.0 5.0 0.00 0.00 0.00 31 1018.2
20260510001416 70 285 4.0 8.0 0.00 0.00 0.00 32 1018.5
20260510000913 71 297 0.0 3.0 0.00 0.00 0.00 29 1018.2
20260510000411 71 257 4.0 4.0 0.00 0.00 0.00 30 1018.3
20260509235905 70 328 3.0 5.0 0.00 0.00 0.00 29 1018.5
20260509235403 70 0 2.0 8.0 0.00 0.00 0.00 30 1018.2
20260509234858 71 10 3.0 4.0 0.00 0.00 0.00 31 1018.1
20260509234356 71 283 0.0 9.0 0.00 0.00 0.00 30 1018.2
20260509233854 72 234 3.0 7.0 0.00 0.00 0.00 31 1018.2
20260509233351 71 282 6.0 7.0 0.00 0.00 0.00 31 1018.5
20260509232846 71 79 5.0 5.0 0.00 0.00 0.00 30 1018.3
20260509232345 71 273 3.0 11.0 0.00 0.00 0.00 31 1018.5
20260509231840 70 90 0.0 4.0 0.00 0.00 0.00 30 1018.7
20260509231337 69 94 3.0 4.0 0.00 0.00 0.00 30 1018.3
20260509230835 69 353 6.0 7.0 0.00 0.00 0.00 30 1018.3
20260509230332 70 225 2.0 7.0 0.00 0.00 0.00 30 1018.7
20260509225827 70 347 3.0 5.0 0.00 0.00 0.00 30 1018.8
20260509225324 71 15 0.0 5.0 0.00 0.00 0.00 32 1018.8
20260509224821 70 180 0.0 8.0 0.00 0.00 0.00 30 1019.0
20260509224316 69 16 0.0 3.0 0.00 0.00 0.00 32 1019.0
20260509223813 70 282 9.0 9.0 0.00 0.00 0.00 32 1019.0
20260509223310 69 310 4.0 8.0 0.00 0.00 0.00 35 1019.1
20260509222807 71 270 3.0 9.0 0.00 0.00 0.00 33 1018.9
20260509222306 71 234 0.0 5.0 0.00 0.00 0.00 35 1019.0
20260509221758 69 141 3.0 8.0 0.00 0.00 0.00 32 1019.0
20260509221256 69 46 4.0 5.0 0.00 0.00 0.00 31 1019.0
20260509220751 69 319 0.0 6.0 0.00 0.00 0.00 34 1019.1
20260509220248 69 343 4.0 7.0 0.00 0.00 0.00 33 1019.1
20260509215743 69 225 3.0 8.0 0.00 0.00 0.00 32 1019.1
20260509215240 68 267 4.0 7.0 0.00 0.00 0.00 33 1019.3
20260509214737 69 323 11.0 12.0 0.00 0.00 0.00 34 1019.5
20260509214234 69 243 3.0 7.0 0.00 0.00 0.00 35 1019.2
20260509213731 68 338 3.0 9.0 0.00 0.00 0.00 34 1019.7
20260509213226 68 357 3.0 7.0 0.00 0.00 0.00 34 1019.5
20260509212724 69 347 0.0 4.0 0.00 0.00 0.00 33 1019.6
20260509212221 68 96 2.0 8.0 0.00 0.00 0.00 34 1019.3
20260509211717 69 346 4.0 6.0 0.00 0.00 0.00 34 1019.8
20260509211214 69 306 0.0 3.0 0.00 0.00 0.00 34 1019.6
20260509210710 68 282 2.0 4.0 0.00 0.00 0.00 36 1019.7
20260509210208 68 262 4.0 7.0 0.00 0.00 0.00 36 1019.7
20260509205707 67 252 4.0 8.0 0.00 0.00 0.00 35 1019.5
20260509205207 68 337 3.0 5.0 0.00 0.00 0.00 34 1019.7
20260509204703 67 198 0.0 7.0 0.00 0.00 0.00 35 1019.6
20260509204159 68 314 5.0 7.0 0.00 0.00 0.00 36 1019.7
20260509203655 66 15 6.0 12.0 0.00 0.00 0.00 34 1019.9
20260509203154 66 190 0.0 5.0 0.00 0.00 0.00 34 1019.9
20260509202649 66 292 4.0 12.0 0.00 0.00 0.00 34 1020.0
20260509202144 67 17 6.0 8.0 0.00 0.00 0.00 35 1019.9
20260509201640 67 326 3.0 5.0 0.00 0.00 0.00 35 1019.9
20260509201137 66 258 3.0 8.0 0.00 0.00 0.00 36 1020.1
20260509200633 67 301 5.0 5.0 0.00 0.00 0.00 37 1020.0
20260509200129 67 237 2.0 5.0 0.00 0.00 0.00 39 1019.9
20260509195625 65 60 3.0 11.0 0.00 0.00 0.00 35 1020.0
20260509195120 66 318 3.0 10.0 0.00 0.00 0.00 36 1019.9
20260509194619 65 6 1.0 9.0 0.00 0.00 0.00 35 1020.1
20260509194117 64 203 0.0 11.0 0.00 0.00 0.00 36 1020.1
20260509193612 65 261 0.0 5.0 0.00 0.00 0.00 36 1019.9
20260509193108 65 338 3.0 4.0 0.00 0.00 0.00 36 1020.2
20260509192605 63 180 0.0 7.0 0.00 0.00 0.00 36 1020.2
20260509192100 64 61 5.0 7.0 0.00 0.00 0.00 36 1020.3
20260509191555 64 43 4.0 6.0 0.00 0.00 0.00 37 1020.5
20260509191051 64 290 2.0 5.0 0.00 0.00 0.00 39 1020.3
20260509190548 64 330 5.0 6.0 0.00 0.00 0.00 39 1020.3
20260509190046 64 300 2.0 5.0 0.00 0.00 0.00 37 1020.5
20260509185543 64 268 6.0 6.0 0.00 0.00 0.00 37 1020.7
20260509185039 64 288 2.0 7.0 0.00 0.00 0.00 38 1020.3
20260509184538 64 48 2.0 4.0 0.00 0.00 0.00 36 1020.3
20260509184033 64 180 1.0 4.0 0.00 0.00 0.00 35 1020.6
20260509183529 62 207 3.0 5.0 0.00 0.00 0.00 36 1020.6
20260509183025 62 165 0.0 6.0 0.00 0.00 0.00 37 1020.6
20260509182521 62 315 4.0 8.0 0.00 0.00 0.00 38 1020.6
20260509182019 62 308 5.0 5.0 0.00 0.00 0.00 39 1020.5
20260509181517 62 274 5.0 7.0 0.00 0.00 0.00 39 1020.5
20260509181014 64 296 3.0 3.0 0.00 0.00 0.00 37 1020.6
20260509180509 62 207 3.0 4.0 0.00 0.00 0.00 39 1020.6
20260509180008 63 201 2.0 3.0 0.00 0.00 0.00 38 1020.7
20260509175502 61 245 2.0 3.0 0.00 0.00 0.00 40 1020.7
20260509174959 60 340 3.0 6.0 0.00 0.00 0.00 39 1020.9
20260509174456 61 17 3.0 3.0 0.00 0.00 0.00 38 1020.8
20260509173950 60 226 6.0 7.0 0.00 0.00 0.00 39 1021.0
20260509173445 60 0 3.0 7.0 0.00 0.00 0.00 39 1021.0
20260509172942 60 341 2.0 4.0 0.00 0.00 0.00 41 1020.7
20260509172439 59 285 3.0 7.0 0.00 0.00 0.00 39 1020.9
20260509171934 60 307 5.0 5.0 0.00 0.00 0.00 42 1020.8
20260509171431 60 274 2.0 6.0 0.00 0.00 0.00 39 1020.7
20260509170927 60 337 3.0 6.0 0.00 0.00 0.00 39 1021.0
20260509170423 59 270 0.0 5.0 0.00 0.00 0.00 39 1020.9
20260509165918 58 293 3.0 4.0 0.00 0.00 0.00 43 1020.9
20260509165413 59 300 2.0 6.0 0.00 0.00 0.00 40 1020.9
20260509164908 57 311 3.0 5.0 0.00 0.00 0.00 40 1020.6
20260509164405 58 322 3.0 5.0 0.00 0.00 0.00 42 1021.0
20260509163901 58 90 0.0 2.0 0.00 0.00 0.00 40 1020.9
20260509163358 58 50 4.0 4.0 0.00 0.00 0.00 40 1021.0
20260509162857 57 291 3.0 4.0 0.00 0.00 0.00 40 1020.9
20260509162356 56 90 0.0 5.0 0.00 0.00 0.00 42 1020.8
20260509161852 57 66 2.0 3.0 0.00 0.00 0.00 43 1021.0
20260509161348 56 128 2.0 5.0 0.00 0.00 0.00 43 1021.2
20260509160844 55 99 2.0 4.0 0.00 0.00 0.00 46 1020.9
20260509160340 54 121 2.0 3.0 0.00 0.00 0.00 45 1021.1
20260509155835 54 57 2.0 4.0 0.00 0.00 0.00 47 1021.2
20260509155332 54 33 2.0 3.0 0.00 0.00 0.00 49 1021.0
20260509154828 53 12 1.0 3.0 0.00 0.00 0.00 52 1021.1
20260509154325 54 63 2.0 2.0 0.00 0.00 0.00 51 1020.8
20260509153822 53 41 2.0 3.0 0.00 0.00 0.00 52 1021.1
20260509153319 53 327 2.0 2.0 0.00 0.00 0.00 51 1021.1
20260509152815 55 343 3.0 4.0 0.00 0.00 0.00 50 1021.1
20260509152311 53 294 0.0 4.0 0.00 0.00 0.00 54 1020.8
20260509151809 52 278 0.0 3.0 0.00 0.00 0.00 56 1021.0
20260509151305 53 357 3.0 3.0 0.00 0.00 0.00 56 1020.9
20260509150804 53 29 1.0 3.0 0.00 0.00 0.00 56 1020.8
20260509150301 52 321 2.0 4.0 0.00 0.00 0.00 59 1020.9
20260509145758 51 109 2.0 3.0 0.00 0.00 0.00 58 1020.7
20260509145258 50 45 2.0 3.0 0.00 0.00 0.00 62 1020.8
20260509144754 49 300 0.0 3.0 0.00 0.00 0.00 62 1020.8
20260509144251 49 90 1.0 3.0 0.00 0.00 0.00 62 1020.8
20260509143748 49 315 2.0 3.0 0.00 0.00 0.00 62 1020.8
20260509143246 50 102 3.0 3.0 0.00 0.00 0.00 59 1020.8
20260509142742 48 285 0.0 1.0 0.00 0.00 0.00 63 1020.9
20260509142238 48 0 3.0 3.0 0.00 0.00 0.00 63 1020.8
20260509141734 47 11 1.0 4.0 0.00 0.00 0.00 63 1020.9
20260509141231 47 113 3.0 4.0 0.00 0.00 0.00 63 1020.5
20260509140728 46 244 6.0 6.0 0.00 0.00 0.00 64 1020.9
20260509140225 46 68 3.0 5.0 0.00 0.00 0.00 65 1020.5
20260509135722 47 82 0.0 4.0 0.00 0.00 0.00 63 1020.3
20260509135220 46 274 3.0 5.0 0.00 0.00 0.00 65 1020.3
20260509134717 45 73 4.0 6.0 0.00 0.00 0.00 65 1020.3
20260509134214 46 81 2.0 3.0 0.00 0.00 0.00 63 1020.2
20260509133711 45 35 0.0 4.0 0.00 0.00 0.00 63 1020.3
20260509133208 45 106 2.0 4.0 0.00 0.00 0.00 62 1020.1
20260509132707 45 270 3.0 5.0 0.00 0.00 0.00 64 1019.9
20260509132205 44 164 3.0 5.0 0.00 0.00 0.00 66 1020.1
20260509131701 43 112 3.0 5.0 0.00 0.00 0.00 65 1019.7
20260509131158 42 106 0.0 3.0 0.00 0.00 0.00 67 1019.7
20260509130653 43 108 5.0 5.0 0.00 0.00 0.00 65 1019.8
20260509130150 43 103 4.0 4.0 0.00 0.00 0.00 64 1019.6
20260509125647 43 98 2.0 4.0 0.00 0.00 0.00 64 1019.5
20260509125143 43 117 8.0 9.0 0.00 0.00 0.00 65 1019.5
20260509124640 42 110 5.0 7.0 0.00 0.00 0.00 65 1019.5
20260509124137 42 129 6.0 8.0 0.00 0.00 0.00 67 1019.3
20260509123635 42 110 4.0 5.0 0.00 0.00 0.00 67 1019.3
20260509123132 42 127 5.0 6.0 0.00 0.00 0.00 65 1019.1
20260509122627 42 74 2.0 5.0 0.00 0.00 0.00 64 1018.8
20260509122124 41 117 4.0 5.0 0.00 0.00 0.00 67 1019.0
20260509121621 41 118 3.0 5.0 0.00 0.00 0.00 68 1018.9
20260509121119 41 142 2.0 2.0 0.00 0.00 0.00 67 1018.8
20260509120617 41 83 3.0 3.0 0.00 0.00 0.00 68 1018.7
20260509120115 41 110 3.0 3.0 0.00 0.00 0.00 67 1018.9
20260509115612 42 105 1.0 3.0 0.00 0.00 0.00 67 1018.6
20260509115109 41 115 5.0 6.0 0.00 0.00 0.00 67 1018.7
20260509114607 41 106 2.0 4.0 0.00 0.00 0.00 67 1018.7
20260509114106 42 95 2.0 2.0 0.00 0.00 0.00 66 1018.9
20260509113604 42 120 0.0 2.0 0.00 0.00 0.00 66 1018.7
20260509113101 42 107 0.0 4.0 0.00 0.00 0.00 65 1018.6
20260509112557 43 151 2.0 2.0 0.00 0.00 0.00 63 1018.7
20260509112054 43 286 0.0 0.0 0.00 0.00 0.00 62 1018.6
20260509111552 44 74 0.0 4.0 0.00 0.00 0.00 61 1018.5
20260509111048 43 90 0.0 5.0 0.00 0.00 0.00 61 1018.5
20260509110545 44 85 4.0 5.0 0.00 0.00 0.00 61 1018.6
20260509110042 44 103 3.0 4.0 0.00 0.00 0.00 61 1018.7
20260509105541 44 144 2.0 3.0 0.00 0.00 0.00 59 1018.6
20260509105038 43 141 3.0 3.0 0.00 0.00 0.00 62 1018.5
20260509104535 42 130 3.0 3.0 0.00 0.00 0.00 62 1018.6
20260509104032 42 114 3.0 3.0 0.00 0.00 0.00 62 1018.6
20260509103529 43 117 2.0 3.0 0.00 0.00 0.00 62 1018.5
20260509103028 44 106 4.0 4.0 0.00 0.00 0.00 60 1018.3
20260509102524 44 111 3.0 3.0 0.00 0.00 0.00 58 1018.5
20260509102021 44 132 2.0 3.0 0.00 0.00 0.00 60 1018.5
20260509101517 45 135 2.0 2.0 0.00 0.00 0.00 58 1018.5
20260509101015 45 124 2.0 4.0 0.00 0.00 0.00 57 1018.3
20260509100512 47 124 3.0 4.0 0.00 0.00 0.00 53 1018.5
20260509100009 46 63 2.0 3.0 0.00 0.00 0.00 55 1018.2
20260509095505 46 59 3.0 7.0 0.00 0.00 0.00 55 1018.0